Regional Weather Roundup
Issued by NWS Bismarck, ND

Home | Current Version | Previous Version | Text Only | Print | Product List | Glossary On
Versions: 1 2 3 4 5 6 7 8 9 10 11 12 13 14 15 16 17 18 19 20 21 22 23 24 25 26 27 28 29 30 31 32 33 34 35 36 37 38 39 40 41 42 43 44 45 46 47 48 49 50
000
ASUS43 KBIS 010910
RWRBIS

NWR BROADCAST TEXT
NATIONAL WEATHER SERVICE BISMARCK ND
400 AM CDT MON SEP 01 2014

NOTE: "FAIR" INDICATES FEW OR NO CLOUDS BELOW 12,000 FEET WITH NO
SIGNIFICANT WEATHER AND/OR OBSTRUCTIONS TO VISIBILITY.


CITY           SKY/WX    TMP DP  RH WIND       PRES   REMARKS
WILLISTON      CLEAR     50  48  93 NW6       29.78F
MINOT          CLEAR     52  49  89 SW6       29.75R
MINOT AFB      CLEAR     50  49  99 W8        29.74S
BISMARCK       CLEAR     54  54 100 W3        29.79R
DICKINSON      MOCLDY    53  47  79 W9        29.79F
GARRISON         N/A     49  48  97 CALM      29.77R
HETTINGER ARPT CLEAR     48  45  89 W6        29.85R
JAMESTOWN      CLOUDY    57  54  89 NW6       29.72S
BEACH            N/A     50  50 100 SW8       29.83R
CARRINGTON     FAIR      54  54 100 W7        29.74F
CROSBY         FAIR      50  50 100 W5        29.76F
HARVEY         FAIR      50  50 100 SW7       29.75S
HAZEN          PTSUNNY   48  46  93 SW6       29.78S
LINTON         FAIR      54  54 100 N5        29.78R
MANDAN         FAIR      50  50 100 W5        29.79S
OAKES            N/A     57  57 100 W7        29.73R
RUGBY          FAIR      52  52 100 W7        29.73S
STANLEY        FAIR      52  52 100 NW5       29.78R
TIOGA          FAIR      50  50 100 NW3       29.80S
WATFORD CITY   FAIR      48  48 100 SW5       29.78R
$$

CITY           SKY/WX    TMP DP  RH WIND       PRES   REMARKS
GRAND FORKS    PTCLDY    53  52  96 W5        29.66S
GRAND FORKS AF PTCLDY    54  54 100 NW8       29.67F
DEVILS LAKE    MOCLDY    57  52  82 NW8       29.70S
FARGO          MOCLDY    56  54  93 NW7       29.68R
CANDO          FAIR      50  50 100 W3        29.72S
CAVALIER       FAIR      52  50  93 NW6       29.67S
GRAFTON        FAIR      55  55 100 W6        29.66F
GWINNER        SUNNY     57  57 100 W5        29.72S
LANGDON        FAIR      50  48  93 W7        29.70S FOG
ROLLA          FAIR      48  48 100 SW7       29.73S
WALHALLA       PTSUNNY   50  50 100 CALM      29.67F FOG
$$

CITY           SKY/WX    TMP DP  RH WIND       PRES   REMARKS
ABERDEEN       MOCLDY    59  56  89 NW10      29.73S
MOBRIDGE       CLEAR     54  53  97 CALM      29.76R
BUFFALO          N/A     50  47  89 W9        29.81S
RAPID CITY     PTCLDY    49  46  90 NW7       29.90S
GLASGOW        PTCLDY    52  49  89 W6        29.84R
SIDNEY         CLEAR     52  48  87 NW5       29.81S
WOLF POINT     CLEAR     51  47  86 CALM      29.83R
GLENDIVE       PTCLDY    52  45  76 NW6       29.83S
MILES CITY     CLEAR     56  45  66 W12       29.85R
BAKER          PTCLDY    53  45  74 SW12      29.85F
$$

CITY           SKY/WX    TMP DP  RH WIND       PRES   REMARKS
BILLINGS       CLOUDY    56  45  66 SW9       29.94S
GREAT FALLS    PTCLDY    46  40  79 S8        29.93S
ESTEVAN        CLOUDY    54  50  87 CALM      29.75F
$$



USA.gov is the U.S. government's official web portal to all federal, state and local government web resources and services.